Date,TemperatureHighF,TemperatureAvgF,TemperatureLowF,DewpointHighF,DewpointAvgF,DewpointLowF,HumidityHigh,HumidityAvg,HumidityLow,PressureMaxIn,PressureMinIn,WindSpeedMaxMPH,WindSpeedAvgMPH,GustSpeedMaxMPH,PrecipitationSumIn
2013-9-1,87.0,76.1,70.8,78.5,73.1,70.2,100,91,69,29.88,29.77,2,0,4,0.11
2013-9-2,73.5,72.2,69.8,73.2,71.8,69.1,100,99,95,29.87,29.71,1,0,2,1.19
2013-9-3,77.4,71.0,61.5,74.9,69.9,60.6,100,96,83,29.79,29.69,2,0,3,0.00
2013-9-4,82.1,66.7,56.1,70.2,61.0,55.5,100,84,50,29.90,29.79,4,1,7,0.00
2013-9-5,71.0,60.9,46.9,62.8,55.9,45.0,98,85,46,30.15,29.85,3,0,3,0.01
2013-9-6,71.1,54.0,40.0,55.8,46.4,39.0,99,79,41,30.25,30.07,2,0,4,0.00
2013-9-7,79.6,61.2,47.2,65.8,55.2,46.1,99,83,46,30.07,29.83,2,0,3,0.00
2013-9-8,70.8,62.6,46.8,63.3,53.6,43.2,91,74,48,30.09,29.73,5,1,7,0.00
2013-9-9,70.2,54.1,39.2,57.5,47.1,37.9,98,80,44,30.23,30.08,3,0,4,0.00
2013-9-10,72.4,64.5,54.8,71.2,62.4,51.5,99,93,83,30.15,30.02,2,0,4,0.06
2013-9-11,95.4,79.0,68.9,81.8,74.1,68.6,100,87,54,30.05,29.91,5,1,12,0.14
2013-9-12,83.8,72.0,65.9,78.3,70.5,65.6,100,95,80,29.94,29.67,4,0,7,1.37
2013-9-13,73.1,65.9,57.5,71.6,65.3,56.1,100,98,91,29.75,29.57,2,0,3,0.50
2013-9-14,68.9,59.2,50.0,60.4,55.5,48.7,97,88,68,30.05,29.75,3,1,4,0.00
2013-9-15,70.9,56.1,45.2,61.7,52.1,44.7,100,88,51,30.16,30.03,3,0,4,0.00
2013-9-16,65.5,55.7,43.7,59.8,52.0,40.9,99,88,68,30.27,29.99,4,0,4,0.01
2013-9-17,66.1,48.5,35.8,53.1,42.8,34.6,100,83,49,30.43,30.27,3,0,6,0.01
2013-9-18,75.1,52.8,37.7,59.8,47.1,36.7,100,84,42,30.32,30.13,2,0,4,0.00
2013-9-19,76.2,57.0,42.8,63.3,52.0,42.0,100,86,49,30.13,30.03,1,0,3,0.00
2013-9-20,76.0,58.0,44.6,63.9,53.9,43.5,99,88,59,30.10,30.00,1,0,2,0.00
2013-9-21,75.0,61.6,46.5,65.8,57.9,45.7,100,89,68,30.02,29.73,3,0,7,0.00
2013-9-22,71.2,63.9,51.7,67.7,59.5,46.1,99,86,60,29.82,29.58,4,1,6,0.56
2013-9-23,61.5,51.8,44.2,48.9,44.5,41.3,91,77,58,29.99,29.82,4,1,6,0.00
2013-9-24,65.0,50.4,37.8,51.4,44.3,36.8,99,81,53,29.98,29.82,4,1,6,0.00
2013-9-25,65.9,51.9,40.0,56.5,48.4,39.0,99,89,61,29.99,29.87,2,0,3,0.00
2013-9-26,69.3,55.9,47.8,57.0,51.5,46.7,98,86,57,30.14,29.99,1,0,3,0.00
2013-9-27,67.2,57.0,47.8,59.2,53.7,46.6,97,89,71,30.26,30.13,1,0,3,0.00
2013-9-28,71.2,54.4,43.6,61.0,50.7,42.8,100,89,61,30.34,30.25,1,0,4,0.00
2013-9-29,67.8,52.3,41.9,57.3,48.8,40.8,100,89,59,30.27,30.13,1,0,3,0.00
2013-9-30,68.3,52.3,41.7,58.9,49.3,40.6,99,91,65,30.14,29.98,1,0,3,0.00